Voltar ao catálogo

NOAA 16 DEB

AtivoSSO
NORAD 41356·DEBRIS·🇺🇸 United States

Lançado Sep 21, 2000 de Vandenberg Space Force Base

Loading…

Próximas Passagens (próximas 24 horas)

TLE

AtualizadoSource: Space-Track

Época: Sep 13, 2026, 09:08 UTC

1 41356U 00055HZ  26256.38107992  .00002217  00000-0  97807-3 0  9995
2 41356  98.7447 311.6457 0037257 238.5483 121.2051 14.23986207549927

Acompanhe NOAA 16 DEB em tempo real com AllMySat

Download on the App Store